Location: D�rnast
(49.6426°N, 11.9755°E)
Time: 15:54:04
(UTC+00:00)

Tiangong - Visible Passes

Search period start: 23 September 2021 00:00
Search period end: 03 October 2021 00:00
Orbit: 382 x 385 km, 41.5° (Epoch: 22 September)

Date Brightness Start Highest point End Pass type
(mag) Time Alt. Az. Time Alt. Az. Time Alt. Az.
28 Sep 3.8 03:39:23 10° S 03:40:02 10° SSE 03:40:41 10° SSE visible
29 Sep 3.4 04:14:20 10° SSW 04:16:26 17° S 04:18:33 10° SE visible
30 Sep 3.5 03:16:46 14° SSE 03:16:46 14° SSE 03:18:29 10° SE visible
01 Oct 3.1 03:51:59 15° SSW 03:53:14 18° S 03:55:31 10° SE visible
02 Oct 3.8 02:54:58 13° SE 02:54:58 13° SE 02:55:39 10° SE visible
02 Oct 3.1 04:27:30 10° SW 04:29:43 18° S 04:31:56 10° SE visible
